This demonstration page uses our WeatherBlox Daily Observations layout. Learn more.

Left ArrowRight Arrow

Hourly Observations for October 11, 2021

Temp ( °F °C ) Dew Point ( °F °C ) Humidity (%) Winds ( mph kmh ) Pressure ( in mb ) Visibility ( mi km ) Precip ( " mm )
12:56 am 00:56 Clear 48 8.9 40 4.4 74 74 NW 7 11 29.73 1007 10 16 N/A
1:56 am 01:56 Clear 46 7.8 39 3.9 77 77 WNW 6 9 29.75 1007 10 16 N/A
2:56 am 02:56 Clear 43 6.1 39 3.9 86 86 WNW 10 17 29.76 1008 10 16 N/A
3:56 am 03:56 Clear 42 5.6 38 3.3 85 85 N N/A 29.75 1007 10 16 N/A
4:56 am 04:56 Clear 42 5.6 38 3.3 85 85 WNW 5 7 29.75 1007 10 16 N/A
5:56 am 05:56 Clear 44 6.7 39 3.9 83 83 NW 6 9 29.75 1008 10 16 N/A
6:56 am 06:56 Clear 41 5 37 2.8 86 86 WNW 7 11 29.78 1008 10 16 N/A
7:56 am 07:56 Sunny 41 5 38 3.3 89 89 WNW 7 11 29.78 1009 10 16 N/A
8:56 am 08:56 Sunny 45 7.2 40 4.4 83 83 NW 7 11 29.79 1009 10 16 N/A
9:56 am 09:56 Sunny 54 12.2 45 7.2 72 72 NW 7 11 29.79 1009 10 16 N/A
10:56 am 10:56 Sunny 63 17.2 45 7.2 52 52 NNW 7 11 29.78 1009 10 16 N/A
11:56 am 11:56 Sunny 66 18.9 44 6.7 45 45 NW 9 15 29.78 1008 10 16 N/A
12:56 pm 12:56 Sunny 69 20.6 41 5 36 36 N 8 13 29.77 1008 10 16 N/A
1:56 pm 13:56 Sunny 71 21.7 41 5 34 34 VRB 6 9 29.75 1008 10 16 N/A
2:56 pm 14:56 Sunny 72 22.2 41 5 33 33 W 7 11 29.75 1008 10 16 N/A
3:56 pm 15:56 Sunny 72 22.2 40 4.4 31 31 W 7 11 29.76 1008 10 16 N/A
4:56 pm 16:56 Mostly Cloudy 72 22.2 39 3.9 30 30 N N/A 29.76 1008 10 16 N/A
5:56 pm 17:56 Sunny 71 21.7 40 4.4 32 32 W 3 6 29.77 1008 10 16 N/A
6:56 pm 18:56 Sunny 69 20.6 40 4.4 35 35 N N/A 29.79 1009 10 16 N/A
7:56 pm 19:56 Clear 56 13.3 41 5 57 57 NE 6 9 29.82 1010 9 14 N/A
8:56 pm 20:56 Clear 53 11.7 40 4.4 61 61 NE 6 9 29.84 1011 9 14 N/A
9:56 pm 21:56 Clear 51 10.6 38 3.3 61 61 NE 6 9 29.85 1011 10 16 N/A
10:56 pm 22:56 Clear 50 10 38 3.3 63 63 ESE 3 6 29.86 1011 10 16 N/A
11:56 pm 23:56 Clear 52 11.1 37 2.8 57 57 N N/A 29.87 1011 10 16 N/A

Powered by AerisWeather